Probability
0 0 0 0 0 0 0 0 0 0 0 0 0 0 0 0 1 2 2 1 0 0 0 0 0 0 0 0 0 0 0 0 0 0 0 0 0 0 0 0 0 0 0
0 0 0 0 0 0 0 0 0 0 0 0 0 0 0 0 0 1 1 0 0 0 0 0 0 0 0 0 0 0 0 0 0 0 0 0 0 0 0 0 0 0 0
0 0 0 0 0 0 0 0 0 0 0 0 0 0 0 0 0 0 0 0 0 0 0 0 0 0 0 0 0 0 0 0 0 0 0 0 0 0 0 0 0 0 0
0 0 0 0 0 0 0 0 0 0 0 0 0 0 0 0 0 0 0 0 0 0 0 0 0 0 0 0 0 0 0 0 0 0 0 0 0 0 0 0 0 0 0
0 0 0 0 0 0 0 0 0 0 0 0 0 0 0 0 0 0 0 0 0 0 0 0 0 0 0 0 0 0 0 0 0 0 0 0 0 0 0 0 0 0 0
0 0 0 0 0 0 0 0 0 0 0 0 0 0 0 0 0 0 0 0 0 0 0 0 0 0 0 0 0 0 0 0 0 0 0 0 0 0 0 0 0 0 0
0 0 0 0 0 0 0 0 0 0 0 0 0 0 0 0 0 0 0 0 0 0 0 0 0 0 0 0 0 0 0 0 0 0 0 0 0 0 0 0 0 0 0
0 0 0 0 0 0 0 0 0 0 0 0 0 0 0 0 0 0 0 0 0 0 0 0 0 0 0 0 0 0 0 0 0 0 0 0 0 0 0 0 0 0 0
0 0 0 0 0 0 0 0 0 0 0 0 0 0 0 0 0 0 0 0 0 0 0 0 0 0 0 0 0 0 0 0 0 0 0 0 0 0 0 0 0 0 0
0 0 0 0 0 0 0 0 0 0 0 0 0 0 0 0 0 0 0 0 0 0 0 0 0 0 0 0 0 0 0 0 0 0 0 0 0 0 0 0 0 0 0
0 0 0 0 0 0 0 0 0 0 0 0 0 0 0 0 0 0 0 0 0 0 0 0 0 0 0 0 0 0 0 0 0 0 0 0 0 0 0 0 0 0 0
0 0 0 0 0 0 0 0 0 0 0 0 0 0 0 0 0 0 0 0 0 0 0 0 0 0 0 0 0 0 0 0 0 0 0 0 0 0 0 0 0 0 0
0 0 0 0 0 0 0 0 0 0 0 0 0 0 0 0 0 0 0 0 0 0 0 0 0 0 0 0 0 0 0 0 0 0 0 0 0 0 0 0 0 0 0
0 0 0 0 0 0 0 0 0 0 0 0 0 0 0 0 0 0 0 0 0 0 0 0 0 0 0 0 0 0 0 0 0 0 0 0 0 0 0 0 0 0 0
0 0 0 0 0 0 0 0 0 0 0 0 0 0 0 0 0 0 0 0 0 0 0 0 0 0 0 0 0 0 0 0 0 0 0 0 0 0 0 0 0 0 0
0 0 0 0 0 0 0 0 0 0 0 0 0 0 0 0 0 0 0 0 0 0 0 0 0 0 0 0 0 0 0 0 0 0 0 0 0 0 0 0 0 0 0
0 0 0 0 0 0 0 0 0 0 0 0 0 0 0 0 0 0 0 0 0 0 0 0 0 0 0 0 0 0 0 0 0 0 0 0 0 0 0 0 0 0 0
0 0 0 0 0 0 0 0 0 0 0 0 0 0 0 0 0 0 0 0 0 0 0 0 0 0 0 0 0 0 0 0 0 0 0 0 0 0 0 0 0 0 0
0 0 0 0 0 0 0 0 0 0 0 0 0 0 0 0 0 0 0 0 0 0 0 0 0 0 0 0 0 0 0 0 0 0 0 0 0 0 0 0 0 0 0
0 0 0 0 0 0 0 0 0 0 0 0 0 0 0 0 0 0 0 0 0 0 0 0 0 0 0 0 0 0 0 0 0 0 0 0 0 0 0 0 0 0 0
0 0 0 0 0 0 0 0 0 0 0 0 0 0 0 0 0 0 0 0 0 0 0 0 0 0 0 0 0 0 0 0 0 0 0 0 0 0 0 0 0 0 0
0 0 0 0 0 0 0 0 0 0 0 0 0 0 0 0 0 0 0 0 0 0 0 0 0 0 0 0 0 0 0 0 0 0 0 0 0 0 0 0 0 0 0
0 0 0 0 0 0 0 0 0 0 0 0 0 0 0 0 0 0 0 0 0 0 0 0 0 0 0 0 0 0 0 0 0 0 0 0 0 0 0 0 0 0 0
0 0 0 0 0 0 0 0 0 0 0 0 0 0 0 0 0 0 0 0 0 0 0 0 0 0 0 0 0 0 0 0 0 0 0 0 0 0 0 0 0 0 0
0 0 0 0 0 0 0 0 0 0 0 0 0 0 0 0 0 0 0 0 0 0 0 0 0 0 0 0 0 0 0 0 0 0 0 0 0 0 0 0 0 0 0
0 0 0 0 0 0 0 0 0 0 0 0 0 0 0 0 0 0 0 0 0 0 0 0 0 0 0 0 0 0 0 0 0 0 0 0 0 0 0 0 0 0 0
Wind_Speed
4 4 3 3 3 2 1 2 2 2 2 2 3 3 3 3 3 3 3 3 3 4 4 4 5 4 3 3 2 3 3 3 6 4 2 2 2 2 3 3 3 3 3
4 4 4 3 3 3 2 2 2 2 3 3 2 3 3 3 3 3 4 4 4 4 4 4 5 3 4 3 3 3 3 3 4 6 4 2 3 3 3 3 3 3 3
4 4 4 4 4 4 3 3 3 3 3 3 3 3 3 3 3 3 4 4 4 4 4 4 5 4 5 3 3 4 3 3 3 4 4 3 3 2 2 3 3 2 3
4 4 4 4 4 4 4 4 3 3 3 3 3 3 4 4 4 4 4 4 4 4 4 4 4 5 5 4 4 4 3 3 3 3 3 3 3 2 2 3 3 2 2
4 4 4 4 4 4 4 4 4 4 3 3 3 4 4 3 3 4 3 3 3 3 3 3 4 4 5 5 4 3 3 3 3 3 3 3 3 2 3 2 4 3 3
4 4 4 4 5 5 4 4 4 4 4 4 4 4 5 4 6 8 6 4 3 3 4 4 4 4 3 5 6 6 5 5 5 4 4 5 5 4 3 3 3 3 4
5 5 5 5 5 5 5 5 5 5 4 5 5 5 5 6 8 8 7 5 3 3 4 4 4 4 4 3 4 5 5 6 7 6 6 6 6 4 4 4 4 4 4
4 5 6 6 5 5 5 5 5 4 4 4 5 5 5 6 8 8 8 5 3 4 4 4 4 4 4 5 4 4 4 4 5 4 5 6 5 4 5 5 4 3 3
5 5 6 5 5 6 5 5 5 4 4 4 4 5 5 6 8 9 8 4 3 4 4 4 4 4 6 8 5 4 5 4 5 5 5 5 5 4 2 1 2 2 3
5 6 5 5 5 5 5 5 4 4 4 4 5 5 5 5 8 9 8 3 4 4 4 4 4 5 7 8 5 4 5 5 3 3 3 4 3 2 2 3 3 3 2
5 5 5 5 4 4 4 4 4 4 4 4 5 5 5 5 7 9 9 4 4 4 4 4 4 8 9 9 7 5 5 4 3 2 3 2 2 2 1 1 2 2 3
4 4 5 5 4 3 3 4 4 3 3 4 4 5 4 5 6 8 10 8 7 4 4 4 5 8 9 9 6 5 6 4 2 2 2 2 2 2 2 2 2 2 2
4 4 4 4 4 4 3 3 3 3 2 3 3 4 5 4 5 8 8 9 8 5 4 6 8 8 8 5 5 6 4 2 1 2 2 3 2 2 1 1 2 2 3
4 4 4 4 4 4 3 2 2 2 2 3 3 4 5 5 4 4 4 4 5 4 4 4 6 6 5 5 4 4 3 2 2 2 2 2 2 1 1 1 1 2 2
3 4 4 3 3 3 3 3 3 3 3 3 3 3 4 5 6 9 6 4 4 3 3 3 3 3 3 3 3 3 3 2 1 1 1 1 2 1 1 1 1 1 1
3 3 3 3 3 3 3 4 4 4 6 6 5 5 5 7 9 9 8 7 7 6 3 2 2 3 3 3 3 3 3 2 2 2 1 1 1 1 1 1 1 1 1
2 3 3 3 3 3 3 3 4 5 6 6 7 8 7 8 9 8 8 7 7 6 3 2 2 3 3 3 3 3 3 3 2 2 1 1 1 1 1 1 1 1 1
3 3 3 2 2 2 3 3 3 3 5 5 6 8 9 9 9 8 8 6 4 4 2 2 3 3 3 3 3 3 3 2 2 2 2 1 1 1 1 1 1 1 2
2 2 2 2 2 2 2 2 2 3 3 4 5 6 8 8 8 8 7 3 3 3 3 3 3 3 3 2 3 3 2 2 2 2 2 1 1 1 1 2 2 2 2
2 3 2 2 2 2 2 2 2 2 3 3 4 4 4 4 3 5 4 3 3 3 3 3 3 3 3 2 2 2 2 2 2 2 2 1 1 1 1 2 2 2 2
2 2 2 1 2 2 2 2 2 2 3 3 3 4 6 3 3 3 3 3 3 3 3 3 3 3 2 2 2 2 2 2 2 2 2 2 1 1 2 2 2 2 2
1 1 1 2 2 2 2 2 2 2 3 3 4 4 6 3 3 3 3 4 3 3 3 3 3 3 2 2 2 2 2 3 2 2 2 2 2 2 1 1 2 2 2
1 2 2 2 2 2 2 2 2 2 3 3 3 3 3 3 3 3 4 4 4 3 3 3 3 3 3 2 2 2 3 3 3 2 2 2 2 2 1 2 2 2 2
2 2 2 2 2 2 2 2 2 2 3 3 3 3 3 3 3 4 4 4 4 3 3 3 3 4 5 4 3 2 3 3 3 2 3 2 2 2 2 2 2 2 2
2 2 2 2 2 2 2 2 2 3 3 3 3 3 3 3 4 4 4 4 4 4 4 4 3 4 5 6 5 4 4 5 4 2 2 2 3 3 2 2 2 2 2
2 2 2 2 2 2 2 2 3 3 3 3 3 3 3 3 4 4 4 4 4 4 4 4 5 5 6 5 6 6 6 5 4 4 3 2 3 3 2 2 2 2 2
Wind_Direction
354 346 341 336 336 335 331 318 310 310 306 299 297 298 298 295 289 276 267 266 265 271 266 260 262 260 258 256 252 252 259 259 266 284 286 283 252 253 265 263 257 253 264
348 354 350 349 352 351 344 338 335 330 327 315 317 314 307 306 302 289 282 279 267 268 272 271 271 272 265 261 255 255 256 257 261 277 288 287 273 260 267 273 280 280 275
352 359 359 358 355 349 340 338 340 337 337 335 333 319 311 308 303 297 289 287 281 274 272 271 274 270 268 268 265 262 261 262 260 265 278 288 287 276 285 287 282 282 284
356 359 0 353 348 343 339 341 341 341 339 337 331 322 317 314 309 305 300 298 296 292 289 281 275 265 263 264 264 261 262 262 261 262 274 281 282 276 261 273 286 283 283
358 356 348 343 344 348 351 351 350 354 348 342 338 335 332 325 320 316 309 302 298 301 306 300 292 279 273 269 268 265 260 259 258 261 269 279 275 274 263 262 272 289 279
355 346 342 347 352 352 352 353 354 354 352 352 344 337 333 327 327 327 324 314 307 302 303 307 304 292 286 284 279 276 266 260 259 258 261 260 263 263 274 272 273 284 282
356 352 351 352 353 348 347 353 352 346 352 351 343 339 333 330 333 336 335 327 318 306 299 303 307 311 305 297 293 289 277 265 257 251 252 254 258 253 252 259 254 261 272
355 354 353 352 347 342 347 352 346 344 348 343 339 337 333 334 341 342 341 335 322 313 308 302 300 303 303 302 295 285 278 272 265 260 255 259 262 252 238 249 256 276 295
352 347 345 345 341 341 345 345 339 340 344 342 338 338 338 338 342 342 342 332 326 321 316 309 301 297 298 300 295 286 286 290 298 284 278 281 279 270 261 258 245 243 274
338 332 335 338 339 339 337 334 335 340 341 340 342 343 339 334 339 340 342 333 325 321 320 318 307 303 306 303 293 283 278 286 301 311 308 310 294 268 247 225 222 225 254
329 327 334 338 335 332 334 336 339 343 344 344 343 342 338 334 335 340 341 337 323 315 312 313 310 312 312 309 304 290 281 291 294 296 300 306 310 302 287 280 259 234 233
329 333 334 334 331 337 341 339 341 344 345 343 342 338 337 335 334 335 338 335 328 311 304 303 305 311 313 313 311 308 309 310 299 290 287 289 290 292 303 315 322 324 298
330 331 329 334 337 338 337 335 336 339 340 336 337 332 330 329 328 331 333 335 334 324 307 307 311 315 320 323 322 321 323 301 279 277 275 285 295 294 310 332 345 355 346
322 322 329 337 338 337 333 328 322 320 325 327 328 324 319 317 318 325 326 327 331 330 327 329 334 340 343 344 337 334 327 311 293 282 292 304 309 305 305 320 315 333 345
317 319 326 331 325 325 326 317 310 299 296 307 303 302 308 310 316 325 329 324 321 323 338 338 340 341 344 343 342 336 334 335 334 325 321 317 317 321 320 336 329 335 329
314 319 318 318 318 320 322 327 333 324 328 328 328 327 313 317 325 330 335 339 340 351 1 339 333 331 326 325 325 328 334 335 333 330 323 314 316 321 325 344 359 359 326
288 296 301 304 307 313 318 322 326 335 340 341 342 339 335 335 339 340 344 353 360 12 16 347 329 320 317 316 315 315 316 322 329 333 330 324 320 321 331 334 339 341 320
287 287 285 288 296 301 304 306 307 312 321 325 332 336 341 342 346 350 355 6 0 4 351 333 320 311 308 308 310 312 315 324 329 329 327 323 322 328 328 315 306 297 298
278 280 283 288 293 297 302 305 307 309 307 310 320 330 338 338 347 355 3 6 338 328 324 318 314 309 308 310 313 314 313 311 315 316 315 314 315 325 313 303 298 299 306
264 274 281 284 294 300 302 301 303 303 305 307 312 312 324 338 344 341 344 333 326 316 309 304 304 304 305 306 310 311 312 309 308 308 306 307 305 293 282 286 286 286 293
266 278 282 284 277 277 283 285 287 289 291 295 296 301 326 331 316 312 313 310 307 305 304 302 301 302 305 308 302 297 295 297 299 300 298 299 297 292 283 281 281 282 289
251 262 264 264 272 276 277 277 279 283 289 294 302 310 325 326 307 304 302 300 298 296 296 295 295 295 291 286 287 289 289 290 294 298 297 292 286 286 287 287 290 292 287
230 242 256 267 266 277 283 282 281 282 283 286 296 304 308 303 301 299 298 298 300 300 300 295 293 297 300 291 277 263 265 269 271 268 274 282 284 282 282 279 278 277 276
222 229 239 253 262 268 272 277 280 281 284 289 294 295 296 295 294 295 296 298 300 300 299 295 290 289 293 296 287 273 266 270 269 262 252 252 267 273 271 273 271 267 269
216 222 231 236 243 254 266 273 277 281 284 286 288 292 294 296 296 294 294 296 300 300 301 298 293 292 291 291 290 286 281 279 271 255 242 235 243 252 254 259 263 267 267
209 216 226 234 241 247 255 266 274 280 283 285 286 287 290 292 294 296 299 300 302 301 300 298 294 295 295 292 288 290 287 281 269 250 228 220 227 239 240 247 254 258 262